OBJECT F, 61740

Orbit data source: Space-Track

You're viewing an Uncataloged Satellite

Recently launched and/or uncataloged satellites may have evolving metadata. Metadata may include but not limited to: Owner, Maufacturer, Bus, Motor, and Mission.

OBJECT F, 61740 is a satellite in SSO that was launched on Mon, 04 Nov 2024 UTC via a SOYUZ-2-1B launch vehicle from the Vostochny Cosmodrome (VOSTO). Unknown objects in Earth's orbit typically refer to objects detected orbiting the Earth but have not yet been identified or cataloged. These objects could be anything from previously untracked satellites, spent rocket stages, debris from satellite collisions, or even natural meteoroids temporarily captured by Earth's gravity.

Loading next visibility...
Identifier
61740, 2024-199F
Orbit
SSO
Country
Flag of TBDTBD
Related business
Manufacturer
Sputniks
Mission
Operational Commercial Communications
Bus & Motor
CUBESAT 3U?, Unknown motor
Mass
3 kg wet, 3 kg dry
Launch date (UTC)
2024-11-04 (1 year ago)
Launch vehicle
SOYUZ-2-1B
Launch site
Vostochny Cosmodrome (VOSTO)
Object type
Unknown
Shape & HBR
Box, 0.1 m
Radar Cross Section
0.035 m², Small (<0.1 m²)

Expand to show TLE details & history
Last TLE update: 7 hours ago

TLE from 7 hours ago
0 OBJECT F
1 61740U 24199F   26037.97104138  .00005121  00000-0  47010-3 0  9998
2 61740  97.3330 244.3818 0013636 137.2153 223.0133 14.95175330112451
Epoch: 2026-02-06T23:18Z
TLE epoch observation values (Epoch: 2026-02-06T23:18:17.975Z)
Latitude
0.00002°
Longitude
117.70563°
Altitude
591.834 km
Speed
7.56 km/s
True Right ascension
16h 17m 31s
True Declination
0° 00' 00"
Sunlit
Object was in daylight at epoch
Visualization orbit readout
Latitude
Unknown
Longitude
Unknown
Altitude
Unknown
Speed
Unknown
Apparent Right ascension
Unknown
Apparent Declination
Unknown
Sunlit
N/A
Visualization observer readout
Local Sidereal Time
08:00:17
Azimuth
Unknown
Elevation
Unknown
Doppler factor
Unknown
Orbital elements
Apogee altitude
588.311 km
Perigee altitude
569.338 km
Semi-major axis
6,956.962 km
Eccentricity
0.00136
Inclination
97.333°
RAAN
244.3818°
Arg. of periapsis
137.2153°
True anomaly
222.90684°
Mean anomaly
223.0133°
Eccentric anomaly
222.96006°
Mean motion
3.74036 °/min
Orbital period
96.25 mins
BSTAR
0.0004701
Loading maneuver chart data...
Computing Atmospheric mass density...
Loading historical data...
Loading historical data...
Loading historical data...
Loading historical data...
Loading historical data...
Loading historical data...
Loading historical data...

Documentation

Showing up to 5 results
|